Location: Briis
(48.6240°N, 2.1211°E)
Time: 16:11:25
(UTC+00:00)

Cosmos 2360 Rocket - Pass Details

Date: 25 September 2020
Orbit: 835 x 844 km, 71.0° (Epoch: 21 October)

Event Time Altitude Azimuth Distance (km) Brightness Sun altitude
Exits shadow 04:15:13 11° 208° (SSW) 2,410 4.2 -15.1°
Maximum altitude 04:20:45 86° 298° (WNW) 853 2.2 -14.2°
Drops below altitude 10° 04:26:27 10° 27° (NNE) 2,471 5.2 -13.3°
Sets 04:28:54 0° 28° (NNE) 3,409 6.0 -12.9°
